Torna al catalogo

STARLINK-2102

AttivoComunicazioniVLEO
NORAD 47382·PAYLOAD·🇺🇸 United States

Lanciato Jan 20, 2021 da Cape Canaveral Space Force Station

Loading…

Prossimi Passaggi (prossime 24 ore)

TLE

AggiornatoSource: CelesTrak SupGP

Epoca: Sep 15, 2026, 01:41 UTC

1 47382C 21005AK  26258.07062500 -.00025618  00000+0 -82380-3 0  2580
2 47382  53.1573 225.2059 0001254  87.7028 296.5218 15.31714637    11

Traccia STARLINK-2102 in tempo reale con AllMySat

Download on the App Store